TimeEDT,TemperatureF,Dew PointF,Humidity,Sea Level PressureIn,VisibilityMPH,Wind Direction,Wind SpeedMPH,Gust SpeedMPH,PrecipitationIn,Events,Conditions,WindDirDegrees,DateUTC
12:53 AM,61.0,60.1,97,30.13,1.0,Calm,Calm,-,0.01,,Overcast,0,2012-10-04 04:53:00
1:53 AM,61.0,60.1,97,30.12,1.5,Calm,Calm,-,0.00,,Overcast,0,2012-10-04 05:53:00
2:07 AM,60.8,60.8,100,30.12,2.5,North,3.5,-,N/A,,Overcast,360,2012-10-04 06:07:00
2:17 AM,60.8,60.8,100,30.12,3.0,NNW,3.5,-,N/A,,Overcast,340,2012-10-04 06:17:00
2:53 AM,61.0,60.1,97,30.12,3.0,Calm,Calm,-,N/A,,Overcast,0,2012-10-04 06:53:00
3:34 AM,60.8,60.8,100,30.12,2.5,North,4.6,-,N/A,,Overcast,350,2012-10-04 07:34:00
3:53 AM,61.0,60.1,97,30.12,1.8,North,4.6,-,N/A,,Overcast,360,2012-10-04 07:53:00
4:27 AM,60.8,60.8,100,30.11,2.5,Calm,Calm,-,N/A,,Overcast,0,2012-10-04 08:27:00
4:39 AM,60.8,60.8,100,30.11,3.0,North,3.5,-,N/A,,Overcast,360,2012-10-04 08:39:00
4:53 AM,61.0,60.1,97,30.12,3.0,Variable,3.5,-,N/A,,Overcast,0,2012-10-04 08:53:00
5:53 AM,61.0,59.0,93,30.12,5.0,North,3.5,-,N/A,,Overcast,350,2012-10-04 09:53:00
6:18 AM,60.8,59.0,94,30.12,2.0,North,4.6,-,N/A,,Overcast,360,2012-10-04 10:18:00
6:53 AM,61.0,59.0,93,30.12,2.0,North,4.6,-,N/A,,Overcast,360,2012-10-04 10:53:00
7:01 AM,60.8,59.0,94,30.13,1.8,North,5.8,-,N/A,,Overcast,360,2012-10-04 11:01:00
7:53 AM,61.0,59.0,93,30.13,2.0,North,4.6,-,N/A,,Overcast,360,2012-10-04 11:53:00
8:53 AM,61.0,59.0,93,30.13,2.0,North,3.5,-,N/A,,Overcast,360,2012-10-04 12:53:00
9:53 AM,62.1,60.1,93,30.13,2.0,Calm,Calm,-,N/A,,Overcast,0,2012-10-04 13:53:00
10:53 AM,62.1,60.1,93,30.13,6.0,Variable,3.5,-,N/A,,Overcast,0,2012-10-04 14:53:00
11:53 AM,64.0,60.1,87,30.12,10.0,North,4.6,-,N/A,,Overcast,350,2012-10-04 15:53:00
12:46 PM,64.4,60.8,88,30.11,10.0,North,6.9,-,N/A,,Overcast,360,2012-10-04 16:46:00
12:53 PM,64.0,61.0,90,30.10,10.0,North,6.9,-,N/A,,Overcast,350,2012-10-04 16:53:00
1:53 PM,64.9,61.0,87,30.08,10.0,Variable,3.5,-,N/A,,Overcast,0,2012-10-04 17:53:00
2:53 PM,64.9,61.0,87,30.07,10.0,Variable,3.5,-,N/A,,Overcast,0,2012-10-04 18:53:00
3:53 PM,64.0,61.0,90,30.04,10.0,NE,5.8,-,N/A,,Overcast,40,2012-10-04 19:53:00
4:53 PM,64.0,61.0,90,30.05,10.0,Calm,Calm,-,0.00,,Overcast,0,2012-10-04 20:53:00
5:53 PM,62.6,60.8,94,30.06,10.0,NW,3.5,-,N/A,,Overcast,320,2012-10-04 21:53:00
6:53 PM,63.0,60.1,90,30.06,10.0,Calm,Calm,-,N/A,,Overcast,0,2012-10-04 22:53:00
7:53 PM,63.0,60.1,90,30.04,6.0,Calm,Calm,-,N/A,,Overcast,0,2012-10-04 23:53:00
8:53 PM,62.6,60.8,94,30.05,5.0,Calm,Calm,-,N/A,,Overcast,0,2012-10-05 00:53:00
9:15 PM,62.6,60.8,94,30.04,4.0,NE,3.5,-,N/A,,Overcast,40,2012-10-05 01:15:00
9:39 PM,62.6,60.8,94,30.05,2.5,Calm,Calm,-,N/A,,Overcast,0,2012-10-05 01:39:00
9:53 PM,62.1,60.1,93,30.05,2.0,Calm,Calm,-,0.00,Rain,Light Rain,0,2012-10-05 01:53:00
10:17 PM,62.6,60.8,94,30.04,1.8,Calm,Calm,-,0.01,Rain,Light Rain,0,2012-10-05 02:17:00
10:25 PM,62.6,60.8,94,30.04,2.0,Calm,Calm,-,0.02,Rain,Light Rain,0,2012-10-05 02:25:00
10:53 PM,61.0,60.1,97,30.05,2.0,Calm,Calm,-,0.02,,Overcast,0,2012-10-05 02:53:00
11:09 PM,62.6,60.8,94,30.03,1.8,Calm,Calm,-,0.00,Rain,Light Rain,0,2012-10-05 03:09:00
11:35 PM,62.6,60.8,94,30.02,2.0,South,3.5,-,0.01,Rain,Light Rain,180,2012-10-05 03:35:00
11:53 PM,62.1,60.1,93,30.03,2.0,NNW,3.5,-,0.01,Rain,Light Rain,340,2012-10-05 03:53:00